Wind_Speed
29 28 28 28 28 29 31 32 31 31 33 35 38 39 39 39 40 42 42 40 38 37 37 36 34 32 30 29 29 27 25 25 25 25 24 24 23 23 23 23 24 27 31 30 29 32 34 33 32 33 33 35 37 35 33 34 33 31 32 33 33 33 32
29 28 28 28 29 29 30 32 32 32 33 35 37 38 38 40 41 42 42 41 39 37 37 36 34 31 30 29 28 26 25 24 24 25 25 24 24 24 24 24 24 25 29 32 32 32 34 33 32 33 35 36 38 38 37 37 35 33 34 34 33 33 33
29 29 29 29 29 29 29 31 33 33 34 35 37 37 38 40 42 43 42 40 39 38 37 36 34 31 29 28 28 26 24 24 24 24 25 24 24 24 24 24 24 25 28 32 34 32 33 34 33 35 37 37 39 39 39 40 38 36 35 34 34 34 35
29 30 30 30 31 30 29 30 33 34 35 35 37 37 36 38 42 43 41 38 38 38 37 36 33 30 28 28 28 25 24 23 24 24 24 25 24 24 25 24 25 27 28 32 34 34 34 34 34 36 38 38 40 40 40 41 40 39 37 35 34 34 37
30 30 32 32 32 31 30 30 32 35 37 37 37 37 36 37 40 42 40 38 37 37 36 35 32 28 27 28 27 25 24 23 23 24 24 24 24 24 25 25 25 27 29 31 34 35 34 33 35 38 38 37 39 41 41 42 41 39 37 35 35 37 41
32 31 33 34 33 31 30 29 31 34 37 38 37 36 37 38 39 41 40 38 37 36 35 34 31 28 28 28 27 25 23 22 22 23 24 24 23 23 24 25 26 28 29 30 32 33 34 34 36 39 39 38 37 38 41 42 42 39 34 32 37 44 49
34 33 34 35 34 32 30 29 30 33 37 39 38 37 38 39 39 40 40 38 36 35 34 33 30 29 28 28 26 24 22 21 21 22 23 23 22 23 24 25 26 27 27 28 29 31 34 35 36 38 40 38 34 34 36 37 36 36 36 38 44 51 54
33 34 33 35 35 33 31 30 30 32 36 39 40 39 39 39 39 39 39 38 36 34 34 33 31 28 27 26 25 23 22 21 20 21 22 22 22 23 23 25 25 24 24 25 28 31 33 35 37 36 36 34 31 32 35 34 33 38 44 49 52 53 52
33 34 33 33 35 34 32 31 31 32 34 38 39 39 39 39 38 38 37 37 36 35 34 34 31 28 27 25 24 23 21 20 20 21 21 21 21 22 23 23 22 21 22 25 28 31 33 35 35 33 30 29 29 32 37 38 39 45 50 52 53 52 49
33 34 31 31 34 34 33 33 31 31 32 34 36 37 37 38 38 37 36 36 36 36 34 33 31 28 26 24 24 23 21 21 21 21 21 20 21 22 21 21 19 19 22 24 27 30 32 35 35 31 29 31 33 36 40 42 44 47 49 50 51 52 47
33 33 30 29 31 33 34 33 32 30 29 31 33 35 35 36 36 35 35 36 36 35 33 32 30 27 26 25 24 22 21 20 20 20 20 19 19 20 19 19 19 20 21 23 27 30 32 34 36 34 34 36 38 40 41 42 43 44 46 46 46 47 46
33 32 29 27 28 31 32 33 32 29 28 28 31 32 33 34 34 34 34 34 35 35 32 31 29 27 26 25 23 21 20 20 20 20 19 18 18 19 19 19 20 20 22 25 28 31 32 33 35 37 37 37 37 38 40 42 41 40 42 41 40 44 50
32 31 28 25 26 28 29 30 30 29 28 27 28 29 30 31 31 32 33 33 34 34 32 30 29 27 26 24 22 21 20 19 19 19 19 19 20 22 22 23 24 24 26 28 30 32 35 35 35 36 36 35 35 37 40 40 39 39 39 40 43 50 56
31 29 27 25 25 25 26 27 28 28 27 26 25 25 28 29 28 28 30 31 32 32 30 30 28 27 25 23 22 20 19 18 18 19 19 19 21 22 22 22 22 22 24 27 29 32 33 32 30 31 33 33 33 34 36 36 38 41 44 48 51 53 53
29 28 27 24 23 23 24 25 26 26 25 24 23 22 26 29 28 26 26 28 30 30 28 28 27 26 24 23 20 19 18 18 17 18 18 18 19 20 20 19 19 19 21 23 24 26 27 27 26 27 28 29 30 32 35 37 41 45 47 50 52 50 49
27 27 26 23 21 22 23 23 23 23 22 21 21 21 25 30 30 28 27 27 28 28 27 26 25 25 24 22 19 17 16 16 16 17 17 18 18 18 18 18 17 17 19 20 20 22 23 24 24 24 26 29 32 34 37 39 42 43 42 45 48 50 49
26 27 24 22 21 20 21 21 20 19 18 18 19 20 24 29 31 30 29 27 25 24 25 25 25 24 23 21 18 16 15 15 16 16 17 17 17 17 18 17 16 16 17 18 19 20 22 23 24 25 27 29 31 32 34 37 40 40 39 41 46 49 49
28 27 24 21 19 19 19 18 16 15 15 15 17 20 24 28 30 30 30 29 25 22 22 24 24 23 21 19 16 14 14 14 14 15 16 16 16 17 17 16 17 17 18 19 20 21 22 23 23 25 26 27 28 29 30 33 36 37 36 39 42 44 48
29 27 23 19 17 16 17 16 14 13 13 14 16 19 24 27 30 30 31 31 28 24 21 22 22 21 20 17 14 14 14 13 14 15 16 16 15 16 17 17 17 18 19 19 19 19 19 19 20 22 24 25 25 26 28 29 32 33 34 36 38 39 42
29 26 22 17 15 14 15 14 12 10 11 12 15 19 23 26 29 31 31 31 29 26 23 22 21 20 18 16 14 14 14 14 13 14 15 15 15 16 17 17 17 18 18 19 18 18 17 18 18 20 21 23 23 24 25 26 27 28 29 32 35 36 37
26 24 20 16 13 13 13 13 10 8 9 12 14 18 22 26 29 31 32 31 29 26 24 22 21 19 17 15 13 13 13 12 11 13 16 16 15 15 16 16 16 17 17 16 15 15 15 16 17 18 20 22 23 23 24 24 24 25 26 29 33 36 37
23 21 19 15 12 12 12 12 10 8 9 12 14 17 22 26 29 30 31 30 29 27 24 21 18 17 14 12 12 12 11 12 14 16 17 16 14 14 14 15 15 14 13 12 12 13 14 16 18 19 21 23 24 24 25 25 24 24 26 28 31 33 36
20 18 16 14 12 11 11 11 11 9 9 12 14 18 22 25 27 28 28 28 28 26 23 19 17 15 12 11 12 14 14 16 17 17 15 14 14 13 13 12 11 9 8 9 10 12 14 16 19 20 22 24 26 26 27 26 25 24 25 27 29 30 32
17 16 14 14 13 11 10 11 11 10 10 12 14 18 22 23 25 27 26 24 23 22 20 18 16 14 13 13 13 15 16 17 16 15 14 13 12 11 9 8 6 5 6 8 10 13 15 17 19 22 24 25 26 28 28 27 26 24 24 26 28 28 28
14 14 13 13 12 11 10 10 11 11 11 12 14 18 22 23 22 25 25 22 20 19 17 16 15 14 14 14 15 16 17 16 14 13 11 10 9 7 5 3 2 4 6 8 10 12 15 18 20 22 24 25 26 27 28 28 26 24 24 25 27 27 24
12 12 12 12 12 11 10 10 11 11 11 13 15 18 23 23 21 22 23 21 18 18 16 15 15 15 15 17 18 17 16 14 12 11 9 7 6 5 2 2 3 4 6 9 11 13 16 18 20 21 22 23 25 27 28 29 29 27 26 26 27 28 25
13 12 12 12 12 11 11 11 12 12 12 14 16 18 23 25 23 21 23 21 19 18 18 17 18 19 19 20 19 15 14 13 11 9 8 6 5 4 4 4 4 6 7 9 12 14 16 17 18 19 21 22 25 27 28 30 31 30 29 28 28 29 29
14 12 12 12 12 11 12 13 13 12 12 15 17 19 23 27 27 24 26 25 22 20 21 22 22 23 22 20 17 14 13 13 10 9 8 7 6 6 5 5 5 7 8 10 12 13 14 16 17 19 20 22 24 26 27 29 30 31 30 30 29 30 32
15 12 11 11 11 11 12 13 12 10 10 13 16 18 22 27 30 28 28 28 25 24 26 26 25 25 22 18 16 15 14 12 10 9 9 9 8 7 6 6 6 8 9 10 11 13 14 16 17 19 20 22 24 26 27 29 30 31 31 31 31 31 31
14 11 11 11 11 11 11 9 6 6 9 12 16 18 19 25 30 30 28 28 27 26 27 26 25 23 20 17 16 16 14 12 11 11 11 10 9 8 6 6 7 8 8 9 11 13 15 17 18 19 21 23 24 25 27 28 29 30 32 33 33 33 32
12 10 10 11 10 10 10 8 7 9 11 13 16 17 18 24 31 31 28 29 29 27 26 26 25 22 19 17 17 16 13 12 12 13 12 11 10 8 7 6 6 7 8 9 11 14 15 17 18 20 22 24 25 25 26 28 29 30 32 33 34 34 34
11 11 11 10 9 8 7 9 11 13 13 14 17 19 18 23 30 31 27 28 30 28 25 25 22 19 18 18 17 15 14 14 14 14 13 12 10 8 7 7 6 6 7 9 11 13 15 16 18 20 22 24 25 26 26 27 29 30 31 32 33 34 34
11 12 12 12 11 8 6 6 10 14 16 16 18 20 20 21 26 29 28 28 29 28 25 23 19 16 16 17 16 15 15 15 15 15 14 12 10 8 7 6 6 6 7 9 11 13 15 16 17 19 22 23 25 27 28 28 29 30 31 32 33 34 34
12 12 11 13 13 9 6 5 6 12 17 17 18 21 22 21 23 26 28 28 28 27 25 23 19 16 16 15 15 15 16 16 16 16 14 12 10 8 7 6 5 6 7 9 11 12 14 15 17 19 21 23 25 26 28 29 30 31 31 32 32 33 34
11 11 8 10 13 11 8 5 4 9 15 18 19 22 23 24 25 27 29 29 28 26 24 22 18 16 16 16 15 16 17 17 17 16 14 12 10 8 7 5 5 5 7 8 10 11 12 14 16 18 20 22 24 26 28 30 31 31 31 31 31 32 33
12 10 6 6 12 13 11 7 4 8 16 19 19 22 25 27 30 31 30 30 29 26 24 21 17 15 16 16 16 17 18 17 17 15 13 11 10 8 7 5 4 4 5 7 8 9 11 12 14 17 19 21 23 25 27 28 29 30 31 31 31 30 31
Wind_Direction
278 274 268 264 263 264 264 261 257 255 254 253 251 250 247 244 242 241 242 247 248 240 233 235 239 242 246 250 253 255 256 255 255 256 256 258 261 262 264 264 262 267 276 284 290 293 296 301 302 303 307 309 310 314 316 315 314 312 309 306 302 300 300
277 275 269 263 260 260 262 261 258 255 253 252 251 249 246 242 240 240 242 246 248 241 234 235 238 240 244 248 251 253 254 254 254 254 255 257 260 263 265 266 267 272 278 284 290 294 297 300 299 300 305 308 310 313 316 316 315 316 312 308 305 303 304
276 272 269 264 259 257 258 259 258 255 252 251 250 248 245 242 240 240 242 247 249 242 234 234 237 240 243 247 250 251 252 254 253 253 255 257 260 263 266 268 270 274 278 283 289 292 294 297 299 301 306 308 310 313 315 315 316 317 315 310 307 307 307
278 268 266 264 259 255 255 256 257 255 252 251 249 247 246 244 241 241 244 249 250 243 235 234 237 241 244 246 249 249 250 250 251 252 254 256 260 262 265 267 269 273 277 282 287 289 293 297 299 302 307 309 309 311 313 314 315 317 316 313 310 308 307
284 269 261 262 260 255 253 253 254 254 252 250 249 247 246 244 241 242 245 249 249 242 235 234 237 241 244 246 247 247 247 248 249 252 253 256 259 261 263 266 268 271 275 280 285 289 294 297 299 302 305 307 308 310 312 313 315 317 315 313 310 307 306
292 277 261 258 260 257 252 251 252 253 253 250 248 246 244 243 242 243 246 248 247 240 233 232 236 240 244 246 248 247 247 248 249 251 252 255 258 260 262 264 267 272 277 282 285 290 294 297 298 300 303 305 306 307 310 313 315 316 312 308 306 306 308
300 290 267 255 257 257 253 250 249 250 251 249 247 245 243 243 242 243 245 247 245 237 230 229 232 238 242 246 248 249 248 248 248 249 251 253 256 258 260 263 269 274 279 284 286 290 293 295 295 298 301 305 305 304 308 312 312 310 306 304 304 306 309
305 300 277 257 254 256 254 251 248 247 248 246 245 244 243 244 244 244 246 246 242 234 227 226 229 234 240 244 247 249 248 247 247 248 249 251 253 255 258 263 269 274 279 283 286 289 292 293 294 296 299 302 303 304 307 308 304 301 303 305 305 306 308
307 303 285 261 253 255 253 251 248 246 245 245 244 243 243 244 245 245 246 245 240 233 227 225 227 231 236 240 244 247 247 246 246 246 247 250 252 255 259 263 268 275 281 284 287 288 290 291 291 293 295 296 297 300 303 303 301 300 304 306 306 307 308
307 302 287 264 253 254 254 252 250 248 246 245 245 245 244 245 245 245 246 244 239 233 229 225 226 229 233 237 241 244 244 245 245 246 248 249 251 254 258 262 268 277 282 283 283 284 287 288 288 290 291 291 294 298 300 301 302 303 307 309 308 308 310
307 301 288 267 255 255 255 254 252 250 248 246 245 245 245 245 246 245 245 244 240 235 230 226 226 227 230 235 239 241 243 244 246 248 249 250 253 257 261 266 274 282 283 282 282 283 285 287 287 289 289 290 296 300 301 302 304 307 310 311 308 306 307
308 302 289 270 258 256 257 257 256 252 249 246 245 246 246 246 246 245 244 243 240 237 233 228 226 226 228 234 238 240 241 242 244 247 249 250 251 252 255 257 263 268 269 271 275 277 279 280 283 287 290 295 300 302 304 307 309 311 310 306 302 299 301
310 304 292 274 261 257 258 260 259 254 250 246 244 244 245 246 245 243 244 244 241 238 234 229 226 225 228 234 237 239 239 239 243 245 245 245 244 245 246 246 250 257 261 265 268 270 274 278 283 288 293 299 303 305 308 310 310 309 304 297 295 295 299
311 307 296 280 265 259 259 260 260 255 250 246 242 236 236 243 245 244 245 244 241 239 234 229 226 224 227 233 237 239 239 238 242 243 243 244 246 249 251 252 258 264 266 267 268 270 276 283 288 294 300 306 309 307 306 305 301 299 295 293 294 296 299
312 309 300 285 269 260 258 260 260 256 250 245 240 230 227 235 242 244 246 244 241 239 233 228 225 224 228 234 236 238 238 238 241 242 244 248 250 254 259 263 269 272 271 272 273 278 286 293 298 303 305 305 302 296 293 292 291 291 292 295 297 298 300
313 313 304 288 272 261 258 260 258 256 252 246 241 231 223 229 236 240 244 244 241 238 231 224 222 223 229 235 235 235 235 235 238 241 246 252 256 262 269 273 278 278 277 281 283 285 289 292 295 295 292 291 290 289 291 291 291 293 296 298 300 300 303
314 313 306 289 274 263 260 260 257 254 252 249 243 229 220 225 231 235 241 243 241 237 227 220 220 223 229 234 233 231 230 232 239 246 252 259 265 271 277 284 288 287 285 287 288 288 290 292 294 293 291 292 292 293 295 294 295 299 300 299 299 301 305
314 312 306 291 275 265 262 260 255 250 247 247 241 225 217 224 228 230 236 240 240 235 223 217 219 223 228 230 227 225 227 233 242 249 255 263 269 276 286 295 297 293 293 297 298 299 300 301 303 302 299 299 297 297 297 296 297 302 301 298 298 302 306
313 309 304 292 275 266 263 259 254 248 243 241 234 220 215 221 226 227 231 234 236 234 225 218 219 221 223 223 221 222 227 233 241 249 257 264 272 283 294 297 295 295 300 306 308 309 311 313 312 309 307 307 306 305 303 302 302 302 300 299 300 303 306
311 307 302 292 274 266 264 261 257 251 244 239 229 217 214 219 223 226 228 230 231 232 227 221 219 220 220 218 218 222 229 234 241 249 259 267 277 287 291 290 295 303 309 314 318 323 328 328 325 323 323 323 321 318 314 310 308 305 303 303 304 306 304
309 305 300 290 276 268 265 262 259 248 238 235 225 213 213 218 222 224 227 228 229 230 229 224 219 218 218 218 221 226 230 229 226 235 254 270 281 283 286 294 305 310 313 319 328 335 339 339 338 339 341 338 335 332 326 319 316 314 312 310 309 309 304
306 303 297 286 272 264 261 259 255 243 231 228 220 209 210 218 222 223 225 227 228 230 231 226 219 216 216 218 220 217 215 217 223 237 255 269 274 275 286 301 307 309 317 329 340 345 347 349 350 350 351 350 347 342 336 330 327 325 321 317 314 311 306
303 300 292 280 268 260 256 253 250 241 230 226 217 207 206 215 222 224 225 227 230 232 231 225 216 211 209 210 209 207 212 225 237 248 256 260 264 276 291 300 302 312 331 344 351 355 354 354 355 356 356 356 354 349 345 342 338 332 327 322 319 318 313
301 298 292 281 270 261 256 252 247 241 231 224 216 206 202 208 220 226 226 228 231 232 229 223 213 204 205 210 211 214 224 234 243 248 251 255 267 282 288 290 302 336 359 0 357 359 2 1 360 0 0 359 357 354 351 350 345 337 331 327 327 329 324
296 294 292 286 277 269 262 255 249 243 233 222 216 208 199 200 215 227 227 226 227 227 223 216 206 199 203 211 215 220 227 234 241 245 248 257 266 269 268 278 355 17 16 13 8 6 9 9 6 4 2 360 359 358 356 355 353 347 340 335 338 342 337
298 293 290 286 281 274 267 259 250 243 233 222 215 208 199 194 204 222 226 222 222 222 213 200 196 197 202 209 216 224 229 232 237 240 245 249 245 229 196 108 59 38 26 23 20 16 14 13 11 8 4 1 3 3 1 0 -0 358 352 347 347 353 354
300 293 290 286 281 272 264 256 248 240 229 220 214 207 200 194 195 208 216 211 211 214 205 193 194 201 206 212 219 225 226 225 228 234 235 227 207 175 135 108 74 52 41 32 26 22 18 15 12 9 6 6 8 8 6 5 5 3 1 357 355 359 4
294 287 286 287 282 274 264 255 248 237 224 219 213 206 201 195 190 197 207 205 201 202 199 196 199 203 208 217 222 219 216 216 219 222 214 193 172 154 127 104 80 59 47 36 29 23 19 16 13 9 10 12 13 12 11 10 9 8 7 5 3 3 7
291 282 277 275 274 272 265 259 255 239 219 217 214 207 203 196 189 194 204 204 199 198 198 199 202 205 210 217 217 210 206 208 208 203 190 173 159 146 124 98 77 61 47 36 29 24 20 17 14 10 12 16 17 16 15 14 14 13 13 12 10 9 9
289 283 272 262 259 261 259 256 250 217 205 211 211 207 204 197 191 195 202 202 199 201 202 201 203 207 211 214 210 204 201 200 196 186 174 166 155 140 120 98 79 62 47 36 30 26 22 19 16 13 15 17 18 17 17 17 17 17 18 18 16 14 12
279 277 274 265 257 253 244 226 202 192 195 199 199 198 197 194 193 197 201 199 199 202 204 203 204 206 208 206 201 197 193 190 185 177 168 161 150 136 120 103 85 65 49 40 35 31 26 21 19 18 19 20 19 18 18 18 18 19 21 22 22 18 15
266 254 256 260 261 255 240 217 201 192 189 189 189 188 188 191 196 199 199 198 200 203 203 203 204 204 202 199 195 189 185 183 177 171 166 157 145 137 125 106 88 70 56 47 40 35 31 25 22 22 23 22 21 19 19 18 18 19 21 23 25 24 21
280 257 242 240 246 248 240 224 207 194 188 186 184 182 181 186 195 200 200 197 200 204 203 201 200 200 198 195 191 185 181 177 173 168 163 156 148 140 127 111 95 77 62 51 44 39 32 27 25 26 25 24 23 21 20 20 20 20 20 21 23 25 24
295 280 251 229 228 228 224 225 213 195 188 184 178 177 178 179 187 197 203 202 202 204 205 201 197 195 195 193 188 183 178 174 171 167 161 155 151 142 130 119 102 81 66 54 48 42 33 26 25 25 26 26 24 22 22 21 21 20 20 20 22 23 24
317 306 279 228 214 210 204 206 208 189 183 180 175 174 176 175 178 188 200 205 204 204 206 204 200 197 197 195 188 180 175 172 170 167 161 156 153 145 134 127 110 86 71 60 52 44 34 27 25 24 26 26 24 23 23 22 22 21 21 21 21 21 21
340 331 316 217 199 194 187 185 187 176 176 177 176 175 177 178 179 186 198 203 202 202 205 206 205 202 200 198 188 178 173 171 170 167 163 159 156 151 143 136 122 99 78 64 55 45 35 28 24 23 25 25 24 24 24 24 22 22 21 21 21 21 21
Height
1339 1338 1337 1337 1337 1338 1339 1340 1341 1342 1343 1343 1343 1345 1347 1349 1351 1352 1354 1356 1357 1358 1360 1362 1364 1365 1366 1367 1367 1368 1368 1369 1370 1371 1371 1372 1372 1372 1372 1372 1371 1368 1365 1366 1368 1367 1366 1367 1366 1365 1365 1364 1362 1362 1361 1359 1358 1356 1353 1351 1350 1349 1348
1336 1335 1333 1332 1332 1333 1334 1335 1336 1337 1338 1338 1338 1340 1342 1344 1345 1346 1349 1351 1352 1354 1356 1358 1360 1361 1362 1363 1363 1363 1364 1365 1366 1367 1367 1368 1368 1368 1369 1369 1368 1366 1364 1362 1364 1364 1362 1362 1363 1361 1361 1360 1357 1356 1355 1354 1352 1351 1348 1346 1345 1343 1341
1331 1331 1330 1328 1327 1327 1329 1331 1332 1333 1333 1333 1333 1335 1337 1339 1340 1341 1343 1345 1347 1349 1351 1354 1355 1357 1359 1359 1358 1359 1360 1360 1362 1363 1363 1364 1365 1365 1365 1366 1365 1364 1362 1359 1359 1361 1360 1359 1359 1357 1357 1356 1353 1351 1350 1348 1346 1345 1343 1341 1340 1337 1336
1326 1326 1325 1324 1322 1322 1324 1326 1327 1328 1328 1329 1329 1330 1332 1334 1335 1336 1338 1340 1342 1344 1347 1349 1352 1354 1356 1355 1355 1355 1356 1356 1357 1358 1359 1360 1361 1362 1362 1363 1362 1361 1360 1358 1356 1356 1357 1356 1355 1354 1353 1351 1348 1346 1345 1343 1341 1339 1338 1336 1334 1333 1331
1321 1320 1320 1319 1319 1318 1318 1320 1322 1323 1323 1324 1325 1326 1327 1329 1330 1332 1334 1335 1337 1339 1342 1345 1348 1351 1352 1352 1351 1351 1351 1352 1353 1354 1355 1356 1357 1358 1358 1359 1359 1358 1357 1355 1353 1352 1353 1353 1351 1349 1348 1347 1344 1341 1340 1338 1336 1334 1332 1330 1329 1328 1326
1316 1315 1314 1314 1314 1313 1313 1314 1316 1318 1319 1320 1321 1322 1323 1324 1325 1327 1329 1330 1332 1334 1336 1340 1343 1347 1348 1348 1348 1349 1348 1348 1349 1350 1351 1352 1353 1354 1355 1355 1355 1355 1354 1352 1350 1349 1349 1349 1348 1346 1344 1343 1342 1338 1335 1332 1330 1329 1328 1326 1324 1322 1320
1311 1310 1309 1308 1309 1308 1308 1308 1310 1312 1314 1316 1317 1318 1318 1319 1320 1322 1324 1326 1327 1329 1331 1334 1338 1341 1343 1345 1346 1346 1345 1345 1345 1346 1347 1348 1350 1350 1351 1351 1351 1351 1350 1349 1348 1346 1345 1344 1344 1342 1339 1338 1338 1335 1332 1330 1326 1324 1323 1322 1320 1316 1313
1305 1304 1303 1302 1303 1303 1303 1303 1304 1306 1308 1311 1313 1314 1314 1315 1316 1318 1320 1321 1323 1325 1326 1329 1333 1336 1339 1341 1343 1343 1343 1342 1342 1342 1343 1345 1346 1347 1347 1347 1348 1348 1347 1346 1345 1343 1342 1341 1340 1339 1337 1335 1334 1331 1329 1328 1326 1321 1317 1316 1313 1311 1308
1300 1298 1297 1297 1297 1298 1298 1298 1298 1300 1303 1306 1308 1309 1310 1311 1312 1314 1316 1317 1319 1320 1322 1324 1327 1331 1334 1337 1339 1340 1340 1339 1339 1339 1340 1341 1343 1343 1344 1344 1345 1344 1344 1343 1341 1339 1339 1337 1336 1335 1334 1332 1330 1328 1325 1324 1323 1317 1312 1309 1305 1303 1304
1296 1293 1292 1292 1292 1293 1294 1293 1294 1296 1299 1301 1303 1305 1306 1307 1309 1310 1312 1313 1315 1316 1318 1320 1323 1326 1330 1333 1335 1336 1336 1336 1335 1335 1336 1338 1339 1340 1341 1341 1341 1341 1340 1339 1338 1336 1336 1334 1332 1332 1331 1328 1326 1325 1322 1320 1318 1312 1308 1305 1298 1294 1297
1291 1288 1286 1286 1287 1289 1290 1290 1290 1292 1295 1297 1299 1300 1302 1303 1304 1307 1308 1309 1311 1313 1315 1316 1319 1322 1326 1329 1331 1332 1332 1333 1333 1332 1333 1334 1335 1336 1337 1338 1338 1338 1337 1336 1334 1333 1332 1330 1327 1327 1327 1325 1322 1321 1319 1316 1314 1310 1305 1302 1297 1290 1289
1287 1284 1282 1282 1283 1284 1285 1286 1288 1290 1292 1293 1295 1296 1297 1299 1301 1303 1305 1306 1307 1309 1311 1313 1315 1318 1322 1325 1327 1328 1329 1329 1330 1330 1330 1331 1332 1333 1334 1336 1336 1335 1334 1333 1332 1330 1329 1327 1324 1323 1322 1321 1319 1317 1314 1311 1309 1307 1303 1300 1297 1291 1285
1283 1280 1278 1278 1278 1279 1281 1283 1285 1286 1288 1290 1291 1292 1293 1294 1297 1299 1301 1303 1304 1306 1307 1309 1311 1314 1318 1322 1324 1324 1325 1326 1327 1327 1327 1328 1329 1330 1331 1332 1332 1332 1331 1330 1328 1326 1324 1323 1322 1320 1318 1318 1317 1313 1310 1307 1304 1303 1301 1297 1294 1289 1283
1279 1276 1275 1274 1274 1275 1277 1279 1281 1283 1285 1286 1288 1289 1290 1290 1292 1295 1297 1299 1301 1302 1303 1305 1307 1311 1316 1319 1320 1321 1322 1323 1323 1324 1324 1325 1325 1326 1327 1328 1328 1329 1328 1327 1325 1322 1320 1320 1320 1317 1315 1315 1314 1311 1308 1305 1301 1299 1296 1292 1289 1285 1280
1275 1273 1271 1271 1271 1272 1273 1275 1277 1279 1281 1283 1284 1287 1288 1287 1289 1292 1294 1297 1298 1299 1299 1301 1305 1309 1313 1315 1316 1317 1318 1319 1320 1320 1321 1321 1322 1323 1324 1325 1325 1326 1325 1323 1322 1320 1318 1317 1316 1315 1313 1312 1312 1309 1306 1303 1299 1296 1292 1287 1282 1278 1276
1272 1270 1268 1267 1268 1269 1270 1271 1274 1275 1277 1279 1281 1284 1285 1285 1286 1289 1291 1294 1296 1296 1296 1299 1302 1307 1310 1312 1313 1314 1315 1316 1317 1317 1317 1318 1319 1320 1320 1322 1322 1322 1321 1320 1319 1317 1316 1314 1313 1312 1311 1310 1308 1305 1302 1298 1294 1292 1289 1283 1276 1270 1269
1269 1267 1265 1265 1264 1265 1267 1268 1270 1272 1273 1275 1277 1280 1282 1282 1283 1286 1289 1291 1293 1294 1294 1297 1301 1305 1307 1308 1310 1311 1312 1313 1313 1314 1314 1315 1316 1317 1317 1318 1319 1318 1317 1316 1315 1314 1313 1311 1310 1309 1307 1305 1303 1301 1298 1293 1289 1287 1285 1279 1272 1265 1261
1266 1264 1263 1262 1262 1263 1264 1265 1267 1268 1270 1272 1274 1277 1279 1279 1280 1283 1286 1289 1291 1292 1293 1295 1299 1302 1304 1305 1307 1308 1309 1310 1311 1311 1311 1312 1314 1314 1314 1315 1315 1314 1313 1313 1312 1310 1309 1307 1306 1304 1302 1301 1299 1296 1294 1289 1285 1283 1280 1275 1270 1264 1257
1263 1261 1260 1259 1259 1259 1260 1261 1263 1265 1267 1269 1271 1273 1276 1276 1277 1280 1283 1286 1288 1290 1292 1294 1297 1300 1301 1303 1304 1305 1306 1308 1308 1309 1309 1311 1311 1312 1312 1312 1312 1311 1310 1309 1308 1306 1305 1304 1302 1300 1298 1296 1294 1292 1289 1286 1282 1279 1276 1271 1267 1264 1258
1259 1257 1256 1256 1255 1256 1257 1258 1260 1261 1263 1266 1268 1270 1273 1274 1275 1277 1280 1283 1286 1288 1290 1292 1294 1297 1298 1300 1302 1303 1304 1306 1307 1307 1308 1309 1309 1310 1309 1309 1308 1307 1306 1305 1304 1302 1301 1300 1299 1297 1295 1292 1290 1288 1285 1282 1279 1276 1273 1269 1264 1261 1258
1255 1254 1253 1252 1252 1253 1254 1255 1257 1259 1261 1263 1265 1268 1270 1271 1273 1275 1278 1280 1283 1285 1287 1289 1292 1294 1296 1298 1299 1301 1302 1304 1305 1306 1306 1307 1308 1308 1307 1306 1306 1305 1304 1302 1301 1300 1299 1298 1296 1294 1292 1289 1287 1284 1281 1279 1277 1274 1271 1267 1262 1258 1254
1252 1250 1249 1249 1250 1250 1252 1253 1255 1257 1258 1260 1262 1265 1268 1269 1271 1274 1276 1278 1280 1283 1285 1287 1290 1292 1294 1296 1297 1299 1301 1303 1304 1305 1305 1305 1306 1305 1304 1304 1304 1303 1302 1300 1299 1298 1297 1296 1294 1292 1290 1287 1284 1282 1279 1276 1273 1270 1267 1264 1260 1256 1250
1248 1248 1247 1247 1248 1249 1250 1251 1253 1255 1257 1258 1260 1263 1266 1268 1269 1272 1274 1276 1278 1281 1283 1286 1289 1291 1293 1294 1296 1298 1300 1301 1302 1303 1303 1304 1304 1303 1303 1303 1302 1301 1300 1298 1297 1296 1295 1293 1291 1289 1287 1284 1282 1279 1276 1273 1270 1267 1264 1261 1258 1254 1249
1246 1245 1245 1245 1246 1247 1248 1249 1251 1253 1255 1257 1259 1261 1263 1266 1268 1269 1272 1274 1277 1279 1282 1284 1287 1289 1291 1293 1295 1297 1298 1299 1300 1301 1301 1301 1302 1302 1302 1301 1300 1299 1298 1297 1296 1295 1293 1291 1289 1287 1285 1283 1281 1278 1274 1271 1268 1265 1262 1259 1255 1252 1247
1243 1243 1243 1243 1243 1244 1246 1248 1249 1251 1253 1255 1257 1259 1261 1264 1267 1267 1269 1273 1276 1277 1280 1283 1285 1288 1290 1291 1293 1295 1296 1297 1298 1299 1299 1300 1300 1300 1300 1299 1298 1298 1296 1295 1294 1293 1292 1290 1288 1286 1284 1283 1280 1277 1273 1269 1267 1263 1260 1257 1253 1249 1245
1241 1241 1241 1240 1241 1242 1244 1246 1247 1249 1251 1253 1255 1256 1258 1262 1265 1266 1268 1271 1275 1277 1279 1282 1284 1286 1288 1289 1291 1292 1294 1295 1296 1297 1298 1298 1299 1298 1298 1298 1297 1296 1295 1294 1293 1292 1291 1289 1288 1286 1285 1283 1280 1276 1272 1268 1264 1261 1258 1254 1251 1247 1243
1239 1239 1239 1239 1240 1240 1242 1243 1245 1247 1249 1251 1252 1254 1256 1259 1263 1265 1267 1269 1273 1275 1277 1280 1282 1283 1285 1287 1288 1290 1292 1293 1294 1295 1296 1297 1297 1297 1297 1296 1296 1295 1294 1293 1292 1291 1290 1289 1288 1287 1285 1283 1279 1275 1271 1267 1263 1259 1256 1252 1249 1245 1241
1237 1237 1238 1238 1238 1239 1240 1241 1243 1245 1247 1249 1250 1252 1254 1257 1260 1263 1264 1267 1270 1273 1275 1277 1279 1280 1282 1285 1287 1289 1290 1291 1292 1294 1295 1295 1295 1295 1295 1295 1295 1294 1293 1293 1292 1291 1290 1289 1288 1287 1285 1282 1278 1275 1271 1267 1263 1259 1255 1251 1248 1244 1239
1236 1236 1236 1237 1237 1238 1238 1239 1241 1243 1245 1247 1249 1251 1253 1255 1258 1260 1262 1265 1268 1270 1272 1274 1276 1278 1281 1283 1285 1287 1288 1290 1291 1292 1293 1294 1294 1294 1294 1294 1294 1293 1293 1292 1292 1291 1290 1289 1288 1287 1284 1281 1278 1275 1272 1268 1264 1260 1256 1251 1248 1244 1239
1235 1235 1235 1235 1235 1236 1237 1238 1240 1242 1243 1245 1247 1249 1251 1254 1256 1258 1260 1263 1266 1268 1270 1272 1275 1277 1279 1282 1284 1285 1287 1288 1290 1291 1292 1292 1293 1293 1293 1293 1293 1293 1293 1292 1291 1290 1289 1288 1288 1286 1284 1281 1278 1275 1272 1269 1265 1261 1257 1252 1248 1244 1240
1234 1233 1233 1233 1234 1235 1235 1237 1238 1240 1241 1243 1245 1247 1250 1253 1255 1257 1259 1261 1264 1266 1269 1271 1273 1276 1278 1280 1282 1284 1285 1287 1289 1290 1291 1291 1292 1292 1292 1293 1293 1293 1292 1292 1291 1290 1289 1288 1287 1286 1283 1280 1278 1276 1273 1270 1266 1262 1258 1253 1249 1245 1241
1232 1232 1232 1232 1233 1233 1234 1235 1237 1238 1240 1242 1244 1246 1249 1251 1253 1256 1258 1261 1263 1265 1267 1270 1272 1275 1277 1279 1281 1282 1284 1286 1287 1289 1290 1290 1291 1291 1292 1292 1292 1292 1292 1292 1291 1290 1289 1289 1287 1285 1283 1280 1278 1276 1273 1270 1267 1263 1259 1255 1251 1248 1244
1230 1230 1230 1230 1231 1232 1233 1234 1235 1237 1239 1241 1243 1245 1248 1251 1253 1255 1257 1260 1262 1264 1267 1270 1272 1274 1276 1278 1280 1281 1283 1285 1286 1288 1288 1289 1290 1291 1291 1292 1292 1292 1292 1292 1291 1290 1289 1289 1287 1285 1283 1281 1278 1276 1273 1270 1267 1263 1260 1256 1252 1249 1246
1228 1227 1228 1229 1230 1231 1233 1234 1235 1236 1238 1240 1242 1245 1248 1251 1253 1255 1257 1259 1262 1264 1266 1269 1271 1273 1275 1277 1279 1280 1282 1284 1285 1287 1288 1289 1290 1290 1291 1291 1292 1292 1292 1291 1291 1290 1289 1288 1287 1285 1283 1281 1279 1277 1274 1271 1268 1264 1261 1257 1254 1251 1248
1226 1225 1226 1227 1228 1230 1232 1233 1234 1236 1237 1240 1242 1245 1248 1250 1252 1254 1255 1258 1261 1263 1266 1268 1270 1272 1274 1276 1278 1280 1282 1283 1285 1286 1287 1288 1289 1290 1291 1291 1291 1292 1292 1291 1290 1290 1289 1288 1287 1285 1283 1281 1279 1277 1274 1271 1269 1266 1262 1259 1256 1253 1250
1226 1225 1224 1225 1227 1229 1231 1233 1234 1235 1237 1240 1242 1245 1247 1249 1250 1251 1253 1255 1259 1262 1265 1268 1270 1272 1274 1276 1278 1279 1281 1282 1284 1285 1286 1288 1289 1289 1290 1291 1291 1291 1291 1291 1290 1290 1289 1288 1287 1285 1283 1281 1279 1277 1275 1272 1270 1267 1264 1261 1258 1255 1252